Regional Weather Roundup
Issued by NWS

Home | Current Version | Previous Version | Text Only | Print | Product List | Glossary Off
Versions: 1 2 3 4 5 6 7 8 9 10 11 12 13 14 15 16 17 18 19 20 21 22 23 24 25 26 27 28 29 30 31 32 33 34 35 36 37 38 39 40 41 42 43 44 45 46 47 48 49 50

000
ASUS43 KFSD 242102
RWRSD

WEATHER ROUNDUP FOR SOUTH DAKOTA
NATIONAL WEATHER SERVICE SIOUX FALLS SD
300 PM CST MON NOV 24 2014

NOTE: "FAIR" INDICATES FEW OR NO CLOUDS BELOW 12,000 FEET WITH NO
SIGNIFICANT WEATHER AND/OR OBSTRUCTIONS TO VISIBILITY.


SDZ001>005-009-010-012>017-242200-
NORTHWEST AND NORTH CENTRAL SOUTH DAKOTA

CITY           SKY/WX    TMP DP  RH WIND       PRES   REMARKS
BUFFALO          N/A     34  20  56 NW30      29.90R WCI  20
FAITH            N/A     30  15  53 N15       29.95R WCI  19
MOBRIDGE       SUNNY     28   4  35 NW16      29.92R WCI  16
$$

SDZ012>016-024>037-041>051-057-063-072>074-242200-
SOUTHWEST AND SOUTH CENTRAL SOUTH DAKOTA

CITY           SKY/WX    TMP DP  RH WIND       PRES   REMARKS
RAPID CTY ARPT LGT SNOW  30  27  88 N13G21    29.97R WCI  20
PIERRE         SUNNY     30   6  36 NW16      29.95R WCI  19
CUSTER         CLOUDY    29  18  63 NW12G20   29.89R WCI  19
ELLSWORTH AFB  LGT SNOW  30  28  93 N6        29.96  VSB 7/8 WCI  24
PHILIP         MOSUNNY  N/A N/A N/A N16       29.96R
PINE RIDGE     FLURRIES  31  28  89 N7        29.96R WCI  24
WINNER         FAIR      33   8  35 NW22G29   29.92R WCI  21
$$

SDZ004>011-016>023-039-040-242200-
NORTHEAST SOUTH DAKOTA

CITY           SKY/WX    TMP DP  RH WIND       PRES   REMARKS
ABERDEEN       SUNNY     27  13  55 NW23G35   29.88R WCI  12
WATERTOWN      CLOUDY    20  13  74 NW25G31   29.77R WCI   2
SISSETON         N/A     22  14  71 N30G36    29.79R WCI   4
$$

SDZ017-020-022-023-036>040-048>070-242200-
SOUTHEAST SOUTH DAKOTA

CITY           SKY/WX    TMP DP  RH WIND       PRES   REMARKS
SIOUX FALLS    PTSUNNY   24  14  65 NW23G39   29.78R WCI   9
HURON          SUNNY     27  14  58 NW21G29   29.88R WCI  13
CHAMBERLAIN    SUNNY     29   7  39 NW22G30   29.91R WCI  16
MITCHELL       SUNNY     29  14  53 NW20G33   29.88R WCI  16
YANKTON        SUNNY    N/A N/A N/A NW30G38   29.82R
$$

ABBREVIATIONS USED IN REMARKS
   TC - TEMPERATURE IN CELSIUS
  WCI - WIND CHILL INDEX
   HX - HEAT INDEX
  VSB - VISIBILITY



USA.gov is the U.S. government's official web portal to all federal, state and local government web resources and services.